Vertical_Velocity
1 1 1 1 0 0 0 -0 -0 -0 -0 -0 -0 -0 -0 0 0 0 0 0 0 0 0 0 -0 -0 -0 -0 -0 -0 -0 -1 -1 -1 -1 -1 -1 -1 -1 -1 -1 -1 -1 -1 -1 -1 -1 -1 -1 -0 0 1 1 0 -2 -2 -1 0 0 0 -0 0 0 0 0 1 0 0 0 -0 -0 -0 -0 0 0 -0 -0 -0 -0 -1 -1 -1 -1 -1 -2 -2 -2 -2 -2 -2 -2 -1 -1 -1 -1 -0 -0 -0 -0 -0 -0 -0 -0
1 0 0 0 0 0 -0 -0 -0 -0 -0 -0 -0 -0 -0 0 0 0 0 0 0 0 0 0 -0 -0 -0 -0 -0 -0 -0 -1 -1 -1 -1 -1 -1 -1 -1 -1 -1 -1 -1 -1 -1 -1 -1 -1 -1 -1 0 1 1 0 -1 -2 -1 -0 0 0 0 0 0 1 1 1 1 1 0 0 0 0 0 0 -0 -0 -0 -0 -0 -1 -1 -1 -1 -1 -1 -2 -2 -2 -2 -1 -1 -1 -1 -1 -0 -0 -0 -0 -0 -0 -0 -0 -0
0 0 0 0 0 -0 -0 -0 -0 -0 -0 -0 -0 -0 -0 0 0 -0 -0 -0 -0 -0 -0 0 -0 -0 -0 -0 -0 -0 -0 -1 -1 -1 -1 -1 -1 -0 -0 -1 -1 -1 -1 -1 -1 -1 -1 -1 -1 -1 0 1 1 -0 -1 -2 -1 -0 0 0 0 0 1 1 1 1 1 1 1 0 0 0 -0 -0 -0 -0 -1 -1 -1 -1 -1 -1 -1 -1 -1 -1 -1 -1 -1 -1 -1 -1 -1 -0 -0 0 0 0 0 0 0 0 0
0 0 0 0 -0 -0 -0 -0 -0 -0 0 0 0 0 -0 0 0 -0 -0 -0 -0 -0 -0 -0 -0 -0 -0 -0 -0 -0 -0 -0 -1 -1 -1 -1 -1 -1 -1 -1 -1 -1 -1 -1 -1 -1 -1 -1 -1 -1 -0 1 1 -0 -1 -2 -1 -0 0 0 0 0 1 1 1 1 1 1 1 0 -0 -0 -0 -1 -1 -1 -1 -1 -0 -1 -1 -1 -1 -1 -1 -1 -1 -1 -1 -1 -1 -1 -1 -0 -0 0 0 0 1 0 0 0 0
0 0 -0 -0 0 0 0 -0 -0 0 0 0 0 0 -0 -0 -0 -0 -0 -0 -0 -0 -0 -0 0 -0 -0 -0 -0 -0 -0 -0 -0 -0 -0 -0 -0 -0 -0 -1 -1 -1 -0 -1 -1 -1 -1 -1 -1 -1 -1 1 1 0 -1 -1 -1 -0 0 -0 -0 0 0 1 1 1 1 0 0 0 -0 -0 -1 -1 -1 -1 -1 -1 -1 -1 -1 -1 -1 -1 -1 -2 -1 -1 -1 -1 -1 -1 -1 -1 -0 0 0 1 1 1 1 1 1
0 0 -0 -0 -0 0 1 0 0 0 0 0 -0 -0 -0 -0 -0 -0 -0 -0 -0 -0 -0 -0 0 0 0 -0 -0 -0 -0 -0 -0 -0 -0 -0 -0 -0 -0 -0 -0 -0 -0 -1 -1 -1 -1 -1 -1 -1 -1 0 1 1 -0 -1 -1 -0 0 -0 -0 -0 0 1 1 1 0 0 0 -0 -0 -0 -1 -1 -1 -1 -1 -1 -1 -1 -1 -1 -1 -2 -2 -2 -2 -2 -2 -2 -2 -2 -1 -1 -1 -0 -0 0 1 1 1 1 1
0 -0 -0 -0 -0 0 0 1 1 0 0 0 0 0 0 0 -0 -0 -0 -0 -0 -0 -0 -0 -0 0 0 -0 -0 -0 -0 -0 0 0 0 -0 -0 -0 -0 -0 -0 -0 -0 -1 -1 -1 -1 -1 -1 -1 -1 0 1 1 1 -0 -1 -0 -0 -0 -0 -0 0 1 1 1 1 0 -0 -0 -0 -0 -1 -1 -1 -1 -1 -1 -1 -1 -1 -1 -1 -2 -2 -2 -2 -2 -2 -2 -2 -2 -2 -2 -1 -1 -1 -0 0 1 1 1 1
-0 0 -0 -0 -0 -0 -0 -0 -0 -0 0 1 1 1 1 1 0 0 0 -0 -0 -0 -0 -0 -0 -0 -0 -0 -0 -0 -0 -0 -0 0 0 0 -0 -0 -0 -0 -0 -0 -0 -1 -1 -1 -1 -1 -1 -1 -1 -0 1 1 1 -0 -0 -0 -0 -0 -0 -0 0 1 1 1 1 0 0 -0 -0 -1 -1 -1 -1 -1 -1 -1 -1 -1 -1 -1 -2 -2 -2 -2 -2 -2 -2 -2 -2 -2 -2 -2 -2 -1 -1 -1 -0 0 1 1 1
0 0 0 -0 -0 -0 -0 -0 -1 -1 -0 0 1 1 1 1 1 0 0 0 -0 -0 -0 -0 -0 -0 -0 -0 -0 -0 -0 -0 -0 0 0 0 -0 -0 -0 -0 -0 -0 -1 -1 -1 -1 -1 -1 -1 -1 -1 -0 1 1 1 -0 -0 -0 -0 0 0 0 1 1 1 2 1 1 0 -0 -0 -1 -1 -1 -1 -1 -1 -1 -1 -1 -1 -1 -2 -2 -2 -2 -2 -2 -2 -2 -2 -2 -2 -2 -2 -2 -2 -1 -1 -0 0 1 1
0 1 0 0 -0 0 0 -0 -1 -1 -1 -0 0 0 1 1 1 0 0 0 0 -0 -0 -0 -0 -0 -0 -0 -0 -0 -0 -0 -0 -0 0 0 -0 -0 -0 -0 -0 -0 -1 -1 -1 -1 -1 -1 -1 -1 -1 -1 0 1 1 -0 -1 -1 -0 0 0 0 1 1 1 1 1 1 1 0 -0 -1 -1 -1 -1 -1 -1 -1 -1 -1 -1 -1 -2 -2 -2 -2 -2 -2 -2 -2 -2 -2 -2 -2 -2 -2 -2 -2 -2 -1 -1 -0 0
1 1 1 0 0 -0 -0 -0 -0 -0 -0 -0 -0 0 1 1 1 1 0 0 0 -0 -0 -0 -0 -0 -0 -0 -0 0 -0 -0 -0 -0 0 0 -0 -0 -0 -0 -0 -0 -1 -1 -1 -1 -1 -1 -1 -1 -1 -1 -0 0 1 -0 -1 -1 -0 0 0 0 0 1 1 1 1 1 1 0 -0 -0 -1 -1 -1 -1 -1 -1 -1 -1 -1 -1 -1 -2 -2 -2 -2 -2 -2 -2 -2 -2 -2 -2 -2 -2 -2 -2 -2 -2 -2 -1 -1
1 1 1 1 0 -0 -0 -0 -0 -0 0 0 0 1 1 1 1 1 1 0 0 -0 -0 -0 -0 -0 -0 -0 0 0 -0 -0 -0 -0 -0 -0 -0 -0 -0 -0 -0 -0 -1 -1 -1 -1 -1 -1 -1 -1 -1 -1 -1 -0 0 -0 -1 -1 -0 0 0 0 0 0 0 1 1 1 1 0 0 -0 -0 -1 -1 -1 -1 -1 -1 -1 -1 -1 -1 -1 -1 -2 -2 -2 -2 -2 -2 -2 -2 -2 -2 -2 -2 -2 -2 -2 -2 -2 -2
1 0 0 0 0 0 -0 -0 0 0 0 0 0 1 1 1 1 1 1 0 0 -0 -0 -0 -0 -0 -0 -0 0 0 0 -0 -0 -0 -0 -0 -0 -0 -0 -0 -0 -0 -1 -1 -1 -1 -1 -1 -1 -1 -1 -1 -1 -1 0 -0 -0 -1 -0 0 0 0 0 0 0 0 0 0 1 1 0 -0 -0 -0 -0 -0 -0 -0 -0 -0 -1 -1 -1 -1 -1 -1 -2 -2 -2 -2 -2 -2 -2 -2 -2 -2 -2 -2 -2 -2 -2 -3 -3
0 0 -0 -0 -0 0 0 0 0 0 0 0 0 0 0 1 1 1 1 0 0 -0 -0 -0 -0 -0 -0 -0 0 0 0 0 -0 -0 -0 -0 -0 -0 -0 -0 -0 -0 -0 -1 -1 -1 -0 -0 -1 -1 -1 -1 -1 -1 -0 0 -0 -0 -0 0 0 0 0 0 0 0 0 0 0 0 0 0 -0 -0 -0 -0 0 0 0 -0 -0 -0 -1 -1 -1 -1 -1 -1 -2 -2 -2 -2 -2 -2 -2 -2 -2 -2 -2 -2 -2 -2 -3
0 -0 -0 -0 -0 0 0 0 0 0 0 0 0 0 0 0 0 1 1 0 0 0 -0 -0 -0 -0 -0 -0 0 0 0 0 -0 -0 -0 -0 -0 -0 -0 -0 -0 -0 -0 -0 -0 -1 -1 -1 -0 -0 -0 -0 -0 -0 -0 0 -0 -0 -1 -0 0 0 0 0 0 0 0 0 0 0 0 0 0 0 0 0 0 0 0 0 0 -0 -0 -1 -1 -1 -1 -1 -1 -2 -2 -2 -2 -2 -2 -2 -2 -2 -2 -2 -2 -2 -2
0 0 0 0 0 0 0 0 0 0 0 0 0 0 0 0 0 1 1 1 0 0 0 -0 0 0 0 0 0 0 0 0 -0 -0 -0 -0 -0 -1 -0 -0 -0 -0 -0 -0 -0 -1 -1 -1 -0 -0 -0 -0 -0 0 0 0 0 -0 -1 -0 0 0 0 0 0 0 0 1 1 1 1 0 0 0 0 0 0 0 1 1 0 0 0 -0 -0 -1 -1 -1 -1 -1 -1 -2 -2 -2 -2 -2 -2 -2 -2 -2 -2 -2 -2
0 1 1 1 1 1 1 1 0 0 0 0 0 0 -0 0 0 1 1 1 1 0 0 0 0 0 0 0 0 0 0 0 -0 -0 -0 -0 -1 -1 -1 -1 -0 -0 -0 -0 -0 -0 -1 -1 -1 -0 -0 -0 0 0 0 1 0 -0 -1 -0 -0 0 1 0 0 0 0 0 1 1 1 1 0 0 0 0 0 0 0 1 1 1 1 0 0 -0 -1 -1 -1 -1 -1 -1 -1 -1 -1 -1 -1 -1 -1 -2 -2 -2 -2
1 1 1 1 1 1 1 1 1 0 0 0 0 0 0 0 0 0 1 1 1 1 0 0 0 0 0 0 0 0 0 0 -0 -0 -0 -0 -1 -1 -1 -1 -1 -1 -0 -0 -0 -0 -0 -0 -0 -0 -0 -0 -0 0 0 1 1 0 -0 -0 -0 0 1 1 0 0 0 0 0 0 0 0 0 0 0 0 0 0 0 0 1 1 1 1 0 0 -0 -0 -0 -1 -1 -1 -1 -1 -1 -1 -1 -1 -1 -1 -1 -1 -1
1 1 1 1 1 1 1 1 0 0 0 0 0 0 0 0 0 0 1 1 1 1 1 1 1 1 0 0 0 0 0 0 -0 -0 -0 -0 -1 -1 -1 -1 -1 -1 -1 -0 -0 -0 -0 -0 -0 -0 -0 -0 -0 0 0 1 1 1 0 -0 -0 0 1 1 1 0 0 1 1 1 0 0 0 0 0 0 0 0 0 0 1 1 1 1 1 1 0 0 -0 -0 -1 -1 -1 -1 -1 -1 -1 -1 -1 -1 -1 -1 -1
0 0 0 -0 -0 -0 -0 -0 0 0 0 0 0 0 0 0 0 0 0 1 1 1 1 1 1 1 1 1 1 0 0 0 -0 -0 -0 -1 -1 -1 -1 -1 -1 -1 -1 -1 -1 -0 -0 -0 -0 -0 -0 -0 -0 -0 0 1 1 1 0 0 -0 0 0 1 1 1 1 1 1 1 1 0 0 0 0 0 0 0 0 0 1 1 1 1 1 1 1 1 0 0 -0 -0 -0 -1 -0 -0 -1 -1 -1 -1 -1 -1 -1
-0 -1 -1 -1 -2 -2 -1 -1 -1 -1 -0 -0 -0 -0 0 0 0 0 0 0 1 1 1 1 1 1 1 1 1 1 0 0 0 -0 -0 -1 -1 -1 -1 -1 -1 -1 -1 -1 -1 -1 -0 -0 -0 -0 -0 -0 -0 -0 -0 0 1 0 0 0 -0 -0 0 1 1 1 1 1 1 1 1 1 1 0 0 0 0 0 0 0 1 1 1 1 1 1 1 1 1 1 0 0 -0 -0 -0 -0 -0 -0 -0 -0 -0 -0 -1
-1 -1 -2 -2 -2 -2 -1 -1 -1 -1 -1 -0 -0 0 0 0 0 0 0 1 1 1 1 1 1 2 2 2 2 1 1 0 0 -0 -0 -0 -1 -1 -1 -1 -1 -1 -1 -1 -1 -1 -0 -0 -0 -0 -0 -0 -0 -0 -0 0 0 0 0 0 -0 -0 -0 0 0 1 1 1 1 1 1 1 1 1 0 0 0 0 0 0 0 1 1 1 1 1 1 1 1 1 1 0 0 0 0 0 0 0 -0 0 -0 -0 -0
-1 -1 -1 -1 -1 -1 -0 -0 -0 -0 -0 -0 0 0 0 1 1 1 1 1 1 1 1 1 1 2 2 2 2 2 1 1 1 0 -0 -0 -0 -0 -0 -0 -0 -1 -1 -1 -1 -1 -0 -0 -0 -0 -0 -0 -0 -1 -0 0 0 0 0 0 -0 -0 -0 -0 0 0 0 0 0 0 1 1 1 1 1 1 0 0 0 0 0 0 1 1 1 1 1 1 1 1 1 1 1 1 0 0 0 0 0 0 0 0 0
-0 -1 -1 -0 -0 0 0 0 0 0 -0 -0 0 0 1 1 1 1 1 1 1 1 1 1 1 1 2 2 2 2 2 1 1 1 0 -0 -0 -0 -0 -0 -0 -0 -0 -0 -0 -0 -0 -0 -0 -0 -0 -0 -1 -1 -1 -0 0 0 0 0 -0 -0 -1 -0 -0 -0 -0 0 0 0 0 1 1 1 1 1 1 1 1 0 0 0 0 0 1 1 1 1 1 1 1 1 1 1 1 1 1 1 1 1 1 1 1
0 0 0 0 1 1 1 1 1 0 0 -0 -0 0 0 1 1 1 1 1 1 1 1 1 1 1 1 1 2 2 2 2 2 1 1 0 -0 -0 -0 -0 -0 -0 -0 -0 -0 -0 -0 -0 -0 -0 -0 -0 -1 -1 -1 -1 -0 -0 0 0 0 -0 -1 -1 -1 -0 -0 -0 0 0 0 0 1 1 1 1 1 1 1 1 0 0 0 0 1 1 1 1 1 1 1 1 1 1 1 1 1 1 1 1 1 1 1
1 1 1 1 1 1 1 1 1 1 0 -0 -0 -0 -0 -0 0 0 1 1 1 1 1 1 1 1 1 1 2 2 2 2 2 2 1 1 0 -0 -0 -0 -0 -0 -0 -0 -0 -0 -0 -0 -0 -0 -0 -0 -1 -1 -1 -1 -1 -0 -0 0 0 -0 -0 -1 -1 -1 -0 -0 0 0 0 0 0 0 1 1 0 0 0 1 0 0 0 0 0 1 1 1 1 1 1 1 1 1 2 2 1 1 1 1 1 1 1
1 1 1 1 1 2 2 1 1 1 0 0 -0 -0 -1 -1 -0 -0 0 0 0 1 0 0 0 0 1 1 1 2 2 2 2 2 2 1 1 0 -0 -0 -0 -0 -0 0 0 0 0 -0 -0 -0 -0 -0 -1 -1 -1 -1 -1 -1 -1 -0 0 0 -0 -1 -1 -1 -1 -1 -0 0 0 0 0 0 0 0 0 0 0 0 0 0 0 0 0 0 0 1 1 1 1 1 1 1 2 2 2 2 2 1 1 1 1
2 2 2 2 2 2 2 2 1 1 1 1 0 0 -0 -1 -1 -0 -0 0 0 1 1 0 0 -0 -0 0 1 1 1 1 1 2 2 2 2 1 1 1 0 -0 -0 -0 0 0 0 0 0 -0 -0 -0 -1 -1 -1 -1 -1 -1 -1 -1 -0 0 0 -0 -1 -2 -2 -1 -1 -0 -0 -0 -0 -0 -0 0 0 0 0 0 0 0 0 0 0 0 0 0 1 1 1 1 1 1 1 2 2 2 2 2 2 2 2
2 2 2 2 2 2 2 2 2 1 1 1 1 1 0 0 -0 0 0 0 1 1 1 1 0 0 -0 -0 -0 -0 0 -0 0 1 2 2 2 2 2 2 1 1 -0 -0 -0 -0 0 0 0 -0 -0 -1 -1 -1 -1 -1 -1 -1 -2 -1 -1 -0 0 0 -0 -1 -2 -2 -2 -1 -1 -1 -0 -0 -0 -0 0 0 0 1 1 1 0 0 0 0 0 0 0 0 1 1 1 1 1 1 2 2 2 2 2 2 2
2 2 2 2 2 2 2 2 1 1 1 1 1 1 1 1 1 1 1 0 0 1 1 1 1 1 0 -0 -0 -1 -1 -1 -1 -1 0 0 1 1 2 2 2 2 1 -0 -1 -1 -1 -1 -1 -1 -0 -0 -1 -1 -1 -1 -1 -2 -2 -2 -1 -1 0 0 0 0 -1 -1 -2 -2 -2 -1 -1 -0 -0 -0 -0 0 0 0 1 1 1 1 0 0 0 0 0 0 0 0 0 1 1 1 1 1 2 2 2 2 2
1 1 1 1 1 1 1 1 1 1 1 1 1 1 2 1 1 1 1 1 0 0 0 1 1 1 1 1 1 1 -0 -1 -2 -1 -1 -1 -0 0 1 1 1 1 1 0 -0 -1 -1 -2 -2 -2 -1 -1 -1 -1 -1 -1 -1 -1 -2 -2 -2 -1 -0 0 1 1 1 0 -1 -1 -2 -2 -2 -1 -1 -0 0 0 0 0 0 1 1 1 1 1 1 1 1 1 0 0 0 0 0 0 1 1 1 1 2 2 2
0 0 0 0 1 1 1 1 1 1 1 1 1 1 2 2 1 1 1 1 1 0 0 0 1 1 1 1 2 2 1 0 -1 -1 -1 -1 -1 -0 -0 -0 -0 0 1 0 0 0 -0 -1 -2 -2 -2 -2 -1 -1 -1 -1 -1 -1 -1 -2 -2 -2 -1 -0 0 1 1 1 1 0 -1 -1 -2 -2 -1 -1 -0 0 0 0 0 0 0 1 1 1 1 1 1 1 1 0 0 0 0 0 0 0 1 1 1 2 2
-1 -0 -0 -0 0 1 1 1 1 1 1 1 0 1 2 2 2 2 2 2 1 1 1 0 0 1 1 1 2 2 2 2 1 -0 -0 0 1 0 0 -0 0 1 1 0 1 1 1 -0 -1 -1 -1 -2 -2 -2 -1 -2 -1 -1 -1 -1 -2 -2 -2 -2 -1 -0 1 1 1 1 1 -0 -1 -2 -2 -2 -1 -1 -0 -0 -0 -0 0 0 0 1 1 1 1 1 1 1 1 1 0 0 0 0 0 0 0 1 1
-0 -0 -0 -0 0 0 1 1 1 1 1 1 0 0 1 1 1 1 1 2 2 2 1 0 0 0 0 0 1 2 3 2 1 0 0 1 2 2 1 1 1 2 2 1 2 2 2 0 0 0 0 -0 -1 -1 -1 -2 -2 -1 -1 -1 -1 -2 -2 -3 -2 -2 -1 0 1 1 2 1 1 -0 -1 -2 -2 -1 -1 -1 -0 -0 -0 -0 0 0 0 1 1 1 1 1 1 1 1 1 1 0 0 0 -0 -0 -0
1 1 1 1 1 1 1 1 1 1 1 0 -0 -0 0 1 1 1 1 1 2 2 2 1 0 0 0 -0 0 1 2 2 1 0 0 2 2 3 1 1 2 3 2 2 3 3 2 1 1 1 1 1 0 0 -0 -0 -1 -1 -0 0 -0 -1 -2 -2 -3 -3 -2 -1 -0 1 1 1 1 1 0 -0 -1 -1 -1 -1 -1 -1 -1 -0 -0 0 0 0 0 1 1 1 1 1 1 1 1 1 1 1 0 -0 -0
1 1 1 1 1 1 1 1 0 0 0 0 0 0 -0 0 0 0 0 0 1 1 2 1 1 0 0 -1 -0 0 1 1 0 0 1 1 2 2 2 2 2 2 1 2 2 2 1 1 2 2 1 1 1 0 0 0 0 0 1 1 1 1 -0 -1 -2 -2 -2 -2 -1 -1 -0 0 1 1 1 1 0 -0 -1 -1 -1 -1 -1 -1 -0 0 0 0 0 0 0 0 1 1 1 1 1 1 1 1 1 1 0
-0 -0 -0 0 0 0 0 0 0 0 0 0 1 0 0 1 1 0 -0 0 0 1 2 1 1 1 0 -0 -1 -0 1 0 -0 -1 0 1 1 2 2 2 2 1 -0 1 1 1 -0 1 2 2 1 1 1 0 0 -0 -0 -0 1 2 2 2 1 0 -0 -1 -1 -2 -2 -2 -1 -1 -0 -0 0 0 0 0 -0 -1 -1 -1 -1 -1 -0 -0 0 0 0 0 0 0 0 0 0 0 1 1 1 1 1 1 1
-1 -2 -2 -1 -1 -1 -1 -0 0 0 0 0 0 0 -0 -0 0 1 0 -0 0 0 1 0 1 1 0 -0 -0 -0 1 0 -1 -1 -0 0 1 1 2 2 1 0 -1 0 0 -0 -1 0 1 2 1 2 1 1 1 -1 -1 -1 0 1 1 1 2 1 1 1 1 -0 -1 -1 -1 -1 -1 -0 -0 -0 -0 -0 -1 -1 -1 -1 -1 -1 -1 -1 -0 -0 -0 -0 -0 -0 -0 -0 -0 -0 -0 -0 0 0 1 1 1
-1 -2 -2 -2 -2 -2 -1 -0 0 0 1 0 0 0 -0 -1 -1 0 0 0 0 0 0 -1 -0 -0 0 0 -0 -0 1 0 -0 -1 0 0 0 1 2 2 1 0 0 0 0 -0 -1 0 1 2 2 2 2 2 1 0 0 0 0 -0 -0 0 1 1 2 2 1 1 0 -0 -0 -1 -0 -0 0 0 0 -0 -1 -1 -1 -1 -1 -1 -1 -1 -1 -1 -1 -1 -1 -1 -1 -0 -0 -1 -1 -1 -1 -1 -0 0 1
-0 -1 -1 -2 -1 -1 -0 0 1 1 1 1 1 2 2 0 -0 0 1 0 0 1 1 0 -1 -1 -0 1 -0 -0 1 1 0 -1 0 0 0 1 2 2 1 1 1 1 0 0 0 1 1 2 2 3 2 2 1 1 2 2 1 0 -0 -0 0 0 1 1 1 1 1 1 1 1 1 1 1 1 1 0 0 -0 -1 -1 -1 -1 -1 -1 -1 -1 -1 -1 -1 -1 -1 -1 -1 -1 -1 -1 -1 -1 -1 -1 -0
0 0 -0 -1 -0 1 1 2 2 3 2 2 2 3 3 3 2 2 2 1 1 1 3 2 1 -0 -0 1 1 -0 0 2 1 -0 -0 0 0 1 2 2 1 1 2 1 1 0 1 1 1 2 2 2 1 0 0 2 4 4 3 2 1 0 0 -0 0 0 0 0 0 1 1 2 2 1 1 1 1 1 1 0 0 -0 -0 -1 -1 -1 -1 -1 -1 -1 -1 -1 -1 -1 -1 -1 -1 -1 -1 -2 -2 -2 -1
1 1 1 1 1 2 3 3 3 3 2 2 2 2 3 3 3 3 3 2 1 2 3 3 2 1 -0 0 1 0 0 1 2 1 0 0 0 1 1 1 1 1 2 1 1 0 1 1 1 1 1 1 -0 -1 -0 2 3 4 4 3 2 1 1 0 0 0 0 0 0 -0 0 1 1 2 1 1 1 1 1 1 1 1 0 0 -0 -0 -0 -1 -1 -1 -1 -1 -1 -1 -1 -1 -1 -1 -1 -1 -1 -2 -2
2 3 2 2 2 3 4 3 3 2 2 1 1 1 1 1 2 3 2 2 1 1 2 4 3 1 -0 -1 -0 0 0 1 2 2 1 -0 -0 -0 0 0 1 1 2 1 0 0 1 1 1 1 1 -0 -1 -1 0 2 3 3 4 3 2 2 1 1 1 1 1 0 0 -0 -1 -0 0 1 1 1 1 1 0 0 0 1 1 1 1 1 0 0 -0 -0 -1 -1 -1 -0 -0 -0 -0 -1 -1 -1 -1 -1 -2
3 2 2 1 2 3 4 4 3 1 1 0 0 0 0 0 1 1 1 1 0 -0 -0 3 3 2 -0 -1 -1 -0 0 0 1 2 2 -0 -1 -1 -0 0 0 1 1 0 -0 0 1 1 1 1 0 -1 -2 -1 0 1 2 3 4 2 1 1 2 2 2 2 1 1 0 -0 -1 -1 -1 0 1 1 1 0 -0 -0 -0 0 0 1 1 1 1 1 1 0 0 -0 -0 -0 -0 -0 -0 -0 -0 -1 -1 -1 -2
1 1 0 0 1 2 2 3 2 1 -0 -0 -0 -0 -0 1 1 1 0 0 -0 -1 -2 1 2 2 -0 -1 -1 -0 0 1 1 2 1 0 -1 -1 -1 -0 0 1 0 -0 -0 1 1 1 1 0 -0 -1 -1 -1 -0 1 3 4 4 2 1 2 1 2 3 3 3 2 1 -0 -1 -1 -1 -0 -0 0 -0 -0 -0 -0 0 0 0 0 0 1 1 1 1 1 1 0 0 0 0 -0 -0 -0 -0 -0 -0 -1 -1
-0 -0 -1 -1 -0 0 1 1 1 0 -1 -1 -1 -0 -0 1 1 1 -0 -0 -1 -1 -1 -1 0 0 -0 -1 -1 -1 0 2 2 1 0 -0 -1 -1 -2 -1 0 1 -1 -2 -1 1 1 1 1 -0 -0 0 0 0 -0 1 3 4 3 2 3 3 1 2 4 5 5 4 2 1 0 0 0 0 -0 -1 -1 -1 -0 0 1 0 -0 -0 0 0 0 1 1 1 1 1 1 0 0 0 -0 0 0 0 0 -0 -1
-0 -1 -1 -1 -1 -1 -1 -0 -0 -1 -1 -1 -1 -1 -0 1 1 0 -0 -1 -1 -1 -1 -1 -1 -2 -1 -1 -1 -1 -0 1 2 1 -1 -2 -2 -2 -3 -1 -0 0 -1 -2 -1 0 1 0 -1 -1 -0 1 1 1 1 2 3 3 1 2 3 2 1 3 4 6 6 5 3 2 2 2 2 1 1 -1 -2 -2 -1 0 1 1 1 0 0 0 0 0 0 0 1 1 1 1 0 0 0 0 1 1 0 0 -0
-1 -1 -2 -2 -2 -2 -2 -1 -1 -2 -2 -2 -2 -2 -1 -0 -0 -0 -1 -1 -2 -2 -2 -2 -3 -4 -3 -2 -1 -1 -0 0 1 1 -2 -5 -5 -2 0 -1 -1 -1 0 -0 -1 -1 0 -1 -2 -2 0 1 1 1 2 2 2 2 1 2 1 0 0 3 4 6 6 4 3 3 4 4 3 3 2 0 -1 -1 -1 -1 0 1 1 1 1 1 0 -0 -0 -0 0 0 1 1 0 0 0 0 1 1 0 0 -0
-1 -2 -2 -2 -2 -2 -1 -1 -1 -1 -2 -2 -2 -2 -2 -1 -1 -1 -1 -2 -2 -3 -3 -3 -3 -3 -4 -4 -2 0 2 1 1 -0 -3 -6 -7 -4 1 1 -1 -4 -2 -1 -1 -2 -2 -2 -2 -2 1 1 1 1 2 3 2 0 0 0 -1 -2 0 2 4 5 5 3 2 3 4 4 4 4 3 2 0 -0 -1 -1 -0 0 1 2 2 2 1 0 -0 -0 0 0 0 0 0 0 0 0 0 0 0 -0 -1
-2 -2 -1 -1 -1 -1 -0 0 0 -0 -1 -2 -2 -2 -2 -2 -1 -1 -1 -1 -1 -1 -3 -4 -2 -1 -2 -6 -4 0 5 2 1 -0 -4 -5 -4 -3 -4 -2 -3 -4 -5 -2 -1 -2 -3 -3 -2 -1 2 2 2 3 3 3 1 -1 -1 -1 -2 -2 0 2 3 3 2 1 1 2 3 4 4 4 3 2 1 1 0 0 -0 -0 1 1 2 2 2 1 1 1 1 1 1 0 0 -0 0 0 0 0 -0 -0 -1
-1 -1 -1 -1 -0 -0 0 0 0 -0 -1 -2 -2 -2 -1 -1 -1 -1 -0 -0 0 0 -1 -4 -3 -1 1 -4 -5 -2 5 4 3 1 -4 -7 -2 1 -5 -8 -9 -8 -5 0 1 -1 -2 -4 -3 -0 3 4 4 4 3 2 -0 -2 -1 -0 -1 -2 0 2 2 1 0 -1 -0 1 3 3 3 3 2 1 1 1 1 1 0 0 1 1 1 1 1 2 2 3 3 2 1 0 -0 -0 -0 -0 -0 0 -0 -0 -0
-1 -0 -0 -1 -0 -0 -0 -0 -0 -1 -1 -3 -3 -2 -1 -1 -1 -0 0 0 0 1 1 -1 -3 -3 -2 -3 -5 -4 3 4 4 2 -2 -6 -4 0 0 -5 -11 -13 -8 -2 -2 -2 2 -3 -3 -0 3 5 5 4 2 1 -1 -1 1 0 -1 -1 0 1 1 0 -1 -2 -1 1 3 2 2 2 1 1 1 1 1 1 0 0 0 0 -0 -1 -1 -0 1 2 3 2 1 0 -0 -1 -1 -0 -0 -0 -0 -0 -0
-1 -0 -0 -1 -1 -1 -1 -1 -1 -1 -1 -3 -4 -4 -2 -1 -1 -1 0 0 1 1 1 1 -0 -2 -5 -4 -4 -4 -1 3 3 1 -0 -2 -3 -2 -2 -2 -7 -10 -6 -8 -14 -15 0 4 3 -0 2 4 2 -0 -0 1 0 0 2 0 -1 -1 -0 0 0 -0 -2 -2 -1 1 2 1 1 2 2 1 1 1 1 0 0 0 0 -0 -1 -1 -2 -2 -1 0 1 1 1 0 -0 -1 -1 -1 -0 -0 -0 -1 -1
-1 -1 -1 -1 -1 -1 -1 -1 -1 -1 -0 -2 -3 -4 -4 -2 -2 -2 -1 -1 -0 0 0 -1 -0 -0 -4 -5 -4 -1 -1 1 2 0 -1 0 0 -2 -7 -5 -4 -3 -1 -3 -15 -25 -18 7 9 1 -4 2 0 -3 -3 0 1 1 1 -0 -1 -0 -0 0 0 -1 -3 -2 -0 2 1 0 0 1 1 1 1 1 0 1 1 1 0 -0 -0 -1 -1 -1 -1 -1 -1 -1 -0 0 0 -0 -0 -0 -1 -1 -1 -1 -1
-1 -0 -1 -1 -1 -2 -2 -2 -2 -1 -0 -1 -2 -3 -4 -3 -2 -2 -1 -1 -1 -1 -0 -2 -1 -1 -2 -5 -5 -2 -0 1 2 1 -1 0 2 2 -3 -5 -6 -4 -2 -2 -8 -16 -20 -3 -0 -5 -9 4 3 -3 -6 -1 0 0 0 0 1 1 1 0 -0 -2 -4 -2 0 1 1 1 0 0 -0 0 0 1 1 1 1 1 1 1 0 0 0 0 -0 -1 -1 -1 -0 1 1 1 1 0 -0 -1 -1 -2 -2
-1 -1 -0 -0 -1 -1 -2 -2 -2 -1 -1 -1 -2 -3 -4 -3 -2 -1 -1 -0 -0 -0 -0 -2 -2 -2 -1 -3 -5 -5 -3 -1 2 4 2 -0 0 2 3 1 -2 -6 -7 -10 -11 -10 -6 -3 -8 -14 -17 5 6 -2 -9 -3 -1 -1 -1 1 2 2 2 1 -0 -2 -3 -1 -0 1 1 2 1 0 -0 0 0 0 1 2 2 2 2 2 2 1 1 1 1 0 -0 -0 0 1 2 3 3 2 1 0 -1 -2 -2
-1 -1 -0 0 -0 -0 -1 -1 -1 -1 -1 -1 -1 -2 -3 -3 -2 -1 -1 -0 0 1 1 -1 -2 -2 -0 -0 -3 -6 -7 -4 0 5 6 2 -0 -0 1 2 3 3 1 -7 -10 -9 -7 0 -5 -16 -30 -4 4 1 -5 -4 -4 -4 -3 -1 1 3 2 1 -0 -1 -2 -2 -1 0 1 2 2 1 1 1 0 -0 1 2 2 2 3 3 3 3 2 2 2 1 -0 -0 0 1 3 4 4 4 3 2 1 -0 -1
-1 -1 -1 -0 0 0 -0 -1 -1 -1 -0 -0 -1 -2 -3 -2 -1 -0 -0 0 1 1 1 -0 -2 -2 -1 1 -1 -4 -8 -6 -2 3 6 3 0 -1 0 0 2 4 5 1 -0 -1 -5 -1 -3 -10 -22 -18 -9 0 6 -1 -4 -5 -4 -3 -1 1 1 0 -0 -1 -1 -1 -1 -0 0 1 2 2 2 2 1 1 1 1 2 2 3 4 4 4 3 3 3 2 0 0 0 1 2 4 4 4 4 4 3 1 0
-0 -1 -1 -0 0 0 0 -0 -0 0 0 0 0 -1 -2 -1 -0 0 0 0 1 1 1 0 -1 -1 0 1 -0 -3 -7 -6 -2 2 3 -0 -1 -0 4 2 -0 -1 -0 2 5 6 4 -2 -5 -6 -4 -20 -24 -15 8 5 0 -3 -4 -2 -0 1 -0 -2 -2 -1 -0 -0 0 0 -1 -0 1 2 2 2 2 2 1 1 1 2 2 4 4 4 4 4 3 2 1 1 1 1 2 3 4 4 4 4 4 3 2
-0 -0 -0 0 1 1 1 1 1 1 1 1 1 0 -1 -1 -0 0 0 0 1 2 2 1 0 1 1 1 1 -1 -5 -6 -3 1 2 -3 -4 -2 6 4 1 -2 -1 -0 2 5 6 2 1 1 2 -9 -21 -27 -20 -3 6 6 -2 -2 1 3 1 -2 -2 -1 0 1 2 2 -0 -1 -0 1 0 0 1 2 1 1 1 1 2 3 3 4 4 4 3 2 2 1 1 2 3 2 2 2 3 4 4 4 3
-0 -0 -0 1 1 2 2 1 1 1 1 1 1 1 0 -0 -0 0 -0 -1 -0 1 2 1 1 1 2 2 1 0 -1 -3 -3 -1 3 -1 -4 -4 1 1 -1 -1 1 -0 1 2 3 1 4 6 6 0 -7 -17 -30 -21 -6 6 2 1 3 4 0 -2 -0 2 2 1 2 2 1 -1 -0 -0 -0 -0 -0 0 0 -0 1 1 2 2 2 3 2 2 3 3 3 2 2 2 3 2 1 1 0 1 2 2 3
Height
3143 3143 3143 3142 3142 3141 3141 3141 3141 3140 3140 3140 3139 3139 3138 3138 3138 3137 3137 3136 3136 3136 3136 3135 3135 3135 3134 3134 3133 3133 3133 3132 3132 3132 3131 3131 3131 3130 3130 3129 3129 3129 3128 3128 3128 3127 3127 3127 3127 3126 3126 3126 3126 3125 3124 3124 3124 3124 3124 3123 3123 3123 3122 3122 3121 3121 3121 3120 3120 3120 3119 3119 3119 3118 3118 3118 3117 3117 3116 3116 3115 3115 3114 3113 3112 3111 3111 3110 3109 3109 3108 3108 3107 3107 3106 3106 3106 3105 3105 3105 3104 3104 3104
3143 3142 3142 3141 3141 3141 3141 3140 3140 3140 3139 3139 3138 3138 3138 3137 3137 3136 3136 3136 3136 3135 3135 3135 3134 3134 3134 3133 3133 3132 3132 3132 3131 3131 3131 3130 3130 3130 3129 3129 3128 3128 3128 3127 3127 3127 3126 3126 3126 3126 3126 3126 3125 3124 3124 3123 3123 3123 3123 3123 3122 3122 3122 3121 3121 3121 3120 3120 3120 3119 3119 3118 3118 3118 3117 3117 3117 3116 3116 3116 3115 3114 3114 3113 3112 3111 3111 3110 3109 3108 3108 3107 3107 3106 3106 3106 3105 3105 3105 3104 3104 3104 3104
3142 3142 3141 3141 3141 3140 3140 3140 3139 3139 3139 3138 3138 3137 3137 3136 3136 3136 3136 3135 3135 3135 3134 3134 3134 3133 3133 3133 3132 3132 3131 3131 3131 3131 3130 3130 3129 3129 3128 3128 3128 3127 3127 3126 3126 3126 3126 3126 3126 3125 3125 3125 3124 3124 3123 3123 3123 3122 3122 3122 3122 3121 3121 3121 3121 3120 3120 3120 3119 3119 3118 3118 3118 3117 3117 3116 3116 3116 3116 3115 3115 3114 3113 3113 3112 3111 3110 3110 3109 3108 3108 3107 3106 3106 3106 3106 3105 3105 3104 3104 3104 3103 3103
3141 3141 3141 3140 3140 3140 3139 3139 3139 3138 3138 3137 3137 3137 3136 3136 3136 3135 3135 3134 3134 3134 3134 3133 3133 3133 3132 3132 3132 3131 3131 3131 3130 3130 3129 3129 3129 3128 3128 3127 3127 3126 3126 3126 3126 3125 3125 3125 3125 3125 3124 3124 3124 3123 3123 3122 3122 3122 3122 3121 3121 3121 3121 3121 3120 3120 3119 3119 3119 3118 3118 3117 3117 3117 3116 3116 3116 3115 3115 3115 3114 3113 3113 3112 3111 3111 3110 3109 3109 3108 3107 3107 3106 3106 3106 3105 3105 3104 3104 3104 3103 3103 3102
3141 3141 3140 3140 3139 3139 3139 3138 3138 3137 3137 3137 3136 3136 3136 3135 3135 3134 3134 3134 3133 3133 3133 3133 3132 3132 3132 3131 3131 3131 3130 3130 3130 3129 3129 3128 3128 3127 3127 3127 3126 3126 3126 3125 3125 3125 3124 3124 3124 3124 3124 3124 3123 3123 3122 3122 3121 3121 3121 3121 3121 3120 3120 3120 3120 3119 3119 3118 3118 3118 3117 3117 3116 3116 3116 3116 3115 3115 3114 3114 3113 3113 3112 3112 3111 3111 3110 3109 3108 3108 3107 3106 3106 3105 3105 3105 3104 3104 3104 3103 3103 3102 3102
3140 3140 3139 3139 3139 3138 3138 3138 3137 3137 3136 3136 3136 3135 3135 3134 3134 3134 3133 3133 3133 3133 3132 3132 3132 3131 3131 3131 3131 3130 3130 3129 3129 3128 3128 3127 3127 3127 3126 3126 3126 3125 3125 3125 3124 3124 3123 3123 3123 3123 3123 3123 3122 3122 3121 3121 3121 3121 3121 3120 3120 3120 3119 3119 3119 3118 3118 3118 3117 3117 3117 3116 3116 3116 3115 3115 3114 3114 3114 3113 3113 3112 3112 3111 3111 3110 3110 3109 3108 3107 3107 3106 3106 3105 3105 3104 3104 3104 3103 3103 3103 3102 3102
3139 3139 3138 3138 3138 3138 3137 3137 3136 3136 3136 3136 3135 3135 3134 3134 3133 3133 3133 3133 3132 3132 3132 3131 3131 3131 3131 3130 3130 3129 3129 3128 3128 3127 3127 3126 3126 3126 3126 3125 3125 3125 3124 3124 3123 3123 3123 3122 3122 3122 3122 3122 3122 3121 3121 3121 3120 3120 3120 3119 3119 3119 3118 3118 3118 3118 3117 3117 3117 3116 3116 3116 3115 3115 3115 3114 3114 3113 3113 3113 3112 3112 3111 3111 3110 3110 3109 3108 3108 3107 3106 3106 3105 3105 3104 3104 3104 3103 3103 3103 3102 3102 3101
3139 3138 3138 3137 3137 3137 3136 3136 3136 3136 3135 3135 3135 3134 3134 3133 3133 3133 3132 3132 3132 3131 3131 3131 3131 3130 3130 3129 3129 3128 3128 3127 3127 3126 3126 3126 3125 3125 3125 3124 3124 3124 3123 3123 3123 3122 3122 3122 3121 3121 3121 3121 3121 3121 3120 3120 3119 3119 3119 3118 3118 3118 3118 3117 3117 3117 3117 3116 3116 3116 3116 3115 3115 3114 3114 3114 3113 3113 3112 3112 3112 3111 3111 3110 3110 3109 3109 3108 3107 3107 3106 3106 3105 3104 3104 3104 3103 3103 3102 3102 3102 3102 3101
3138 3138 3137 3137 3136 3136 3136 3135 3135 3135 3134 3134 3134 3134 3133 3133 3132 3132 3132 3131 3131 3131 3131 3130 3130 3129 3129 3129 3128 3128 3127 3127 3126 3126 3125 3125 3124 3124 3124 3123 3123 3123 3122 3122 3122 3122 3121 3121 3121 3121 3120 3120 3120 3120 3119 3119 3119 3118 3118 3117 3117 3117 3117 3117 3117 3116 3116 3116 3116 3115 3115 3114 3114 3114 3113 3113 3112 3112 3112 3111 3111 3111 3110 3110 3109 3109 3108 3108 3107 3106 3106 3105 3105 3104 3104 3103 3103 3102 3102 3102 3101 3101 3101
3137 3137 3137 3136 3136 3136 3135 3135 3134 3134 3134 3133 3133 3133 3133 3132 3132 3131 3131 3131 3131 3130 3130 3130 3129 3129 3128 3128 3127 3127 3126 3126 3126 3125 3124 3124 3123 3123 3123 3122 3122 3122 3121 3121 3121 3121 3121 3120 3120 3120 3119 3119 3119 3119 3119 3118 3118 3117 3117 3117 3116 3116 3116 3116 3116 3116 3116 3115 3115 3114 3114 3114 3113 3113 3113 3112 3112 3111 3111 3111 3111 3110 3110 3109 3109 3108 3108 3107 3106 3106 3105 3105 3104 3104 3103 3103 3102 3102 3101 3101 3101 3101 3100
3136 3136 3136 3136 3135 3135 3134 3134 3134 3133 3133 3133 3133 3132 3132 3132 3131 3131 3131 3130 3130 3130 3129 3129 3128 3128 3127 3127 3126 3126 3126 3125 3125 3124 3124 3123 3122 3122 3122 3121 3121 3121 3121 3121 3120 3120 3120 3119 3119 3119 3118 3118 3118 3118 3118 3117 3117 3116 3116 3116 3116 3116 3115 3115 3115 3115 3115 3114 3114 3114 3113 3113 3113 3112 3112 3111 3111 3111 3111 3110 3110 3109 3109 3108 3108 3107 3107 3106 3106 3105 3105 3104 3104 3103 3103 3102 3102 3101 3101 3101 3101 3100 3100
3136 3136 3136 3135 3135 3134 3134 3134 3133 3133 3133 3132 3132 3132 3131 3131 3131 3130 3130 3129 3129 3129 3128 3128 3128 3127 3127 3126 3126 3125 3125 3124 3124 3123 3123 3122 3122 3121 3121 3121 3120 3120 3120 3119 3119 3119 3119 3118 3118 3118 3117 3117 3117 3117 3116 3116 3116 3116 3115 3115 3115 3115 3114 3114 3114 3114 3114 3113 3113 3113 3112 3112 3112 3111 3111 3111 3111 3110 3110 3109 3109 3109 3108 3108 3107 3107 3106 3106 3105 3105 3104 3104 3103 3103 3102 3102 3102 3101 3101 3100 3100 3100 3099
3135 3135 3135 3134 3134 3134 3133 3133 3133 3132 3132 3132 3131 3131 3131 3131 3130 3130 3129 3129 3128 3128 3128 3127 3127 3126 3126 3126 3125 3124 3124 3123 3123 3122 3122 3121 3121 3121 3120 3120 3119 3119 3119 3118 3118 3118 3118 3117 3117 3117 3116 3116 3116 3116 3116 3115 3115 3115 3114 3114 3114 3114 3114 3113 3113 3113 3113 3112 3112 3112 3112 3111 3111 3111 3110 3110 3110 3109 3109 3109 3108 3108 3107 3107 3106 3106 3106 3105 3105 3104 3104 3103 3103 3102 3102 3101 3101 3101 3100 3100 3100 3099 3099
3134 3134 3134 3134 3133 3133 3133 3132 3132 3132 3131 3131 3131 3131 3130 3130 3129 3129 3128 3128 3128 3127 3127 3126 3126 3126 3125 3125 3124 3124 3123 3122 3122 3121 3121 3121 3120 3120 3119 3119 3118 3118 3118 3117 3117 3117 3116 3116 3116 3116 3116 3115 3115 3115 3115 3114 3114 3114 3113 3113 3113 3113 3113 3112 3112 3112 3112 3111 3111 3111 3111 3110 3110 3110 3109 3109 3109 3108 3108 3108 3107 3107 3106 3106 3106 3105 3105 3104 3104 3103 3103 3102 3102 3101 3101 3101 3101 3100 3100 3099 3099 3099 3098
3134 3133 3133 3133 3133 3132 3132 3132 3131 3131 3131 3131 3130 3130 3130 3129 3129 3128 3128 3127 3127 3126 3126 3126 3125 3125 3124 3124 3123 3123 3122 3121 3121 3121 3120 3120 3119 3119 3118 3118 3117 3117 3117 3116 3116 3116 3116 3115 3115 3115 3114 3114 3114 3114 3113 3113 3113 3113 3112 3112 3112 3112 3112 3111 3111 3111 3111 3111 3110 3110 3110 3109 3109 3109 3108 3108 3108 3108 3107 3107 3106 3106 3106 3105 3105 3104 3104 3103 3103 3102 3102 3102 3101 3101 3101 3100 3100 3100 3099 3099 3098 3098 3097
3133 3133 3132 3132 3132 3131 3131 3131 3131 3131 3130 3130 3130 3129 3129 3128 3128 3127 3127 3126 3126 3126 3125 3125 3124 3124 3123 3123 3122 3121 3121 3121 3120 3120 3119 3119 3118 3118 3117 3117 3116 3116 3116 3115 3115 3115 3115 3114 3114 3114 3113 3113 3113 3112 3112 3112 3112 3111 3111 3111 3111 3111 3111 3111 3110 3110 3110 3110 3109 3109 3109 3108 3108 3108 3107 3107 3107 3106 3106 3106 3106 3105 3105 3104 3104 3104 3103 3103 3102 3102 3101 3101 3101 3100 3100 3099 3099 3099 3098 3098 3098 3097 3097
3132 3132 3132 3131 3131 3131 3131 3130 3130 3130 3130 3129 3129 3128 3128 3128 3127 3127 3126 3126 3125 3125 3125 3124 3123 3123 3122 3122 3121 3121 3120 3120 3119 3119 3118 3118 3117 3117 3116 3116 3116 3115 3115 3114 3114 3114 3113 3113 3113 3112 3112 3112 3112 3111 3111 3111 3111 3110 3110 3110 3110 3110 3110 3109 3109 3109 3109 3108 3108 3108 3107 3107 3107 3107 3106 3106 3106 3106 3105 3105 3105 3104 3104 3103 3103 3103 3102 3102 3101 3101 3101 3100 3100 3099 3099 3099 3098 3098 3097 3097 3097 3096 3096
3131 3131 3131 3131 3130 3130 3130 3130 3129 3129 3129 3128 3128 3127 3127 3127 3126 3126 3126 3125 3125 3124 3124 3123 3123 3122 3121 3121 3120 3120 3119 3119 3118 3118 3117 3117 3116 3116 3115 3115 3115 3114 3114 3113 3113 3112 3112 3112 3111 3111 3111 3111 3111 3110 3110 3110 3109 3109 3109 3109 3108 3108 3108 3108 3108 3108 3107 3107 3107 3106 3106 3106 3106 3106 3105 3105 3105 3104 3104 3104 3104 3103 3103 3102 3102 3102 3101 3101 3101 3100 3100 3099 3099 3098 3098 3098 3097 3097 3096 3096 3096 3096 3095
3131 3130 3130 3130 3129 3129 3129 3128 3128 3128 3128 3127 3127 3126 3126 3126 3125 3125 3124 3124 3124 3123 3123 3122 3122 3121 3121 3120 3119 3119 3118 3117 3117 3116 3116 3116 3115 3115 3114 3114 3113 3113 3112 3112 3112 3111 3111 3111 3110 3110 3110 3110 3109 3109 3109 3108 3108 3108 3107 3107 3107 3107 3107 3107 3106 3106 3106 3106 3106 3105 3105 3105 3105 3104 3104 3104 3103 3103 3103 3103 3102 3102 3102 3101 3101 3101 3100 3100 3100 3099 3099 3098 3098 3097 3097 3097 3096 3096 3096 3095 3095 3094 3094
3129 3129 3129 3129 3128 3128 3128 3127 3127 3127 3126 3126 3126 3126 3125 3125 3124 3124 3123 3123 3122 3122 3122 3121 3121 3120 3120 3119 3118 3118 3117 3116 3116 3116 3115 3115 3114 3114 3113 3113 3112 3111 3111 3111 3110 3110 3110 3109 3109 3109 3109 3108 3108 3108 3108 3107 3107 3107 3106 3106 3106 3106 3106 3105 3105 3105 3105 3105 3104 3104 3104 3103 3103 3103 3103 3102 3102 3102 3101 3101 3101 3101 3101 3100 3100 3099 3099 3099 3098 3098 3098 3097 3097 3096 3096 3096 3095 3095 3095 3094 3094 3093 3093
3128 3128 3128 3127 3127 3127 3126 3126 3126 3126 3126 3125 3125 3124 3124 3123 3123 3123 3122 3122 3121 3121 3121 3120 3120 3119 3119 3118 3117 3117 3116 3116 3115 3114 3114 3113 3113 3112 3112 3111 3111 3110 3110 3109 3109 3109 3108 3108 3108 3107 3107 3107 3107 3106 3106 3106 3106 3106 3105 3105 3104 3104 3104 3104 3104 3103 3103 3103 3103 3103 3102 3102 3102 3101 3101 3101 3101 3101 3100 3100 3100 3099 3099 3099 3098 3098 3098 3097 3097 3097 3096 3096 3096 3095 3095 3095 3094 3094 3093 3093 3093 3092 3092
3127 3127 3126 3126 3126 3126 3126 3125 3125 3125 3124 3124 3124 3123 3123 3122 3122 3121 3121 3121 3120 3120 3120 3119 3119 3118 3118 3117 3116 3116 3115 3115 3114 3113 3113 3112 3112 3111 3111 3110 3110 3109 3108 3108 3108 3107 3107 3106 3106 3106 3106 3106 3105 3105 3105 3105 3105 3104 3104 3103 3103 3103 3102 3102 3102 3102 3101 3101 3101 3101 3101 3101 3101 3100 3100 3100 3099 3099 3099 3098 3098 3098 3098 3097 3097 3097 3096 3096 3096 3096 3095 3095 3095 3094 3094 3093 3093 3093 3092 3092 3091 3091 3091
3126 3126 3126 3125 3125 3125 3125 3124 3124 3123 3123 3123 3122 3122 3121 3121 3121 3120 3120 3119 3119 3119 3118 3118 3117 3117 3116 3116 3116 3115 3114 3114 3113 3112 3112 3111 3111 3110 3109 3109 3108 3108 3107 3106 3106 3106 3106 3105 3105 3105 3104 3104 3104 3104 3103 3103 3103 3103 3102 3102 3101 3101 3101 3101 3100 3100 3100 3100 3099 3099 3099 3099 3099 3099 3098 3098 3098 3097 3097 3097 3097 3096 3096 3096 3096 3095 3095 3095 3094 3094 3094 3093 3093 3093 3092 3092 3092 3091 3091 3091 3090 3090 3090
3126 3126 3125 3125 3125 3124 3124 3123 3123 3122 3122 3121 3121 3121 3121 3120 3120 3119 3119 3118 3118 3117 3117 3117 3116 3116 3115 3115 3115 3114 3113 3113 3112 3111 3111 3110 3109 3109 3108 3107 3107 3106 3106 3105 3105 3104 3104 3104 3103 3103 3103 3102 3102 3102 3102 3102 3101 3101 3101 3101 3100 3100 3099 3099 3099 3098 3098 3098 3098 3097 3097 3097 3097 3097 3096 3096 3096 3096 3096 3095 3095 3095 3094 3094 3094 3094 3093 3093 3093 3092 3092 3092 3092 3091 3091 3091 3091 3090 3090 3090 3089 3089 3088
3125 3125 3125 3124 3124 3123 3123 3122 3122 3121 3121 3121 3120 3120 3119 3119 3118 3118 3117 3117 3117 3116 3116 3116 3115 3115 3114 3114 3113 3113 3112 3112 3111 3110 3110 3109 3108 3108 3107 3106 3106 3105 3104 3104 3103 3103 3102 3102 3102 3101 3101 3101 3101 3101 3101 3100 3100 3100 3099 3099 3098 3098 3098 3097 3097 3096 3096 3096 3096 3096 3096 3095 3095 3095 3095 3095 3094 3094 3094 3094 3093 3093 3093 3092 3092 3092 3091 3091 3091 3091 3091 3090 3090 3090 3090 3089 3089 3089 3088 3088 3088 3087 3087
3125 3124 3124 3123 3123 3122 3122 3121 3121 3121 3120 3119 3119 3118 3118 3117 3117 3116 3116 3116 3116 3115 3115 3114 3114 3113 3113 3113 3112 3112 3111 3111 3110 3109 3109 3108 3107 3107 3106 3105 3104 3104 3103 3102 3102 3101 3101 3101 3100 3100 3100 3100 3099 3099 3099 3099 3098 3098 3098 3097 3097 3096 3096 3096 3095 3095 3095 3094 3094 3094 3093 3093 3093 3093 3093 3093 3092 3092 3092 3092 3091 3091 3091 3091 3090 3090 3090 3090 3089 3089 3089 3089 3088 3088 3088 3088 3087 3087 3087 3086 3086 3086 3086
3124 3123 3123 3122 3122 3121 3121 3121 3120 3119 3119 3118 3118 3117 3117 3116 3116 3115 3115 3115 3114 3114 3113 3113 3112 3112 3112 3111 3111 3111 3110 3109 3109 3108 3108 3107 3106 3106 3105 3104 3103 3102 3102 3101 3101 3100 3100 3099 3099 3099 3098 3098 3098 3098 3097 3097 3097 3096 3096 3096 3095 3095 3094 3094 3093 3093 3093 3092 3092 3092 3091 3091 3091 3091 3091 3091 3091 3090 3090 3090 3090 3089 3089 3089 3088 3088 3088 3087 3087 3087 3087 3086 3086 3086 3086 3086 3086 3086 3085 3085 3085 3084 3084
3123 3122 3122 3121 3121 3120 3120 3119 3119 3118 3118 3117 3116 3116 3116 3115 3115 3114 3114 3113 3113 3112 3112 3111 3111 3111 3110 3110 3110 3109 3109 3108 3107 3107 3106 3106 3105 3105 3104 3103 3102 3101 3101 3100 3099 3099 3098 3098 3097 3097 3097 3096 3096 3096 3096 3096 3095 3095 3095 3094 3094 3093 3092 3092 3091 3091 3091 3090 3090 3090 3089 3089 3089 3089 3089 3088 3088 3088 3088 3088 3087 3087 3087 3086 3086 3086 3086 3086 3085 3085 3085 3085 3084 3084 3084 3084 3084 3084 3083 3083 3083 3083 3082
3121 3121 3121 3120 3120 3119 3119 3118 3118 3117 3116 3116 3116 3115 3115 3114 3114 3113 3112 3112 3112 3111 3111 3110 3110 3109 3109 3108 3108 3107 3107 3106 3106 3106 3105 3105 3104 3104 3103 3102 3101 3100 3099 3098 3098 3097 3097 3096 3096 3096 3095 3095 3095 3095 3094 3094 3094 3093 3093 3092 3092 3091 3091 3090 3090 3089 3089 3088 3088 3087 3087 3087 3087 3086 3086 3086 3086 3086 3086 3085 3085 3085 3085 3084 3084 3084 3084 3083 3083 3083 3083 3082 3082 3082 3082 3082 3081 3081 3081 3081 3081 3081 3081
3121 3120 3120 3119 3119 3118 3117 3117 3116 3116 3115 3115 3115 3114 3114 3113 3113 3112 3112 3111 3111 3110 3110 3109 3109 3108 3107 3107 3106 3106 3105 3105 3104 3104 3104 3103 3103 3102 3101 3101 3100 3099 3098 3097 3096 3096 3095 3095 3095 3094 3094 3094 3093 3093 3092 3092 3092 3091 3091 3091 3090 3090 3089 3089 3088 3087 3087 3086 3086 3085 3085 3085 3084 3084 3084 3084 3084 3083 3083 3083 3083 3083 3082 3082 3082 3081 3081 3081 3081 3081 3080 3080 3080 3080 3080 3079 3079 3079 3079 3079 3079 3079 3078
3120 3119 3118 3118 3117 3117 3116 3116 3116 3115 3114 3114 3114 3113 3113 3112 3112 3111 3111 3110 3110 3109 3108 3108 3107 3107 3106 3106 3105 3104 3104 3103 3102 3102 3102 3101 3101 3101 3100 3099 3099 3098 3097 3096 3095 3095 3094 3093 3093 3092 3092 3092 3091 3091 3091 3091 3090 3090 3089 3089 3088 3088 3087 3087 3086 3086 3085 3084 3084 3083 3083 3082 3082 3082 3082 3081 3081 3081 3081 3081 3080 3080 3080 3080 3079 3079 3079 3079 3078 3078 3078 3078 3077 3077 3077 3077 3077 3077 3076 3076 3076 3076 3076
3119 3118 3117 3117 3116 3116 3116 3115 3115 3114 3113 3113 3113 3112 3112 3111 3111 3110 3110 3109 3109 3108 3107 3106 3106 3105 3105 3104 3104 3103 3102 3102 3101 3101 3100 3100 3099 3099 3098 3098 3097 3096 3096 3095 3094 3093 3093 3092 3091 3091 3091 3090 3090 3089 3089 3088 3088 3087 3087 3086 3086 3086 3086 3085 3085 3084 3083 3082 3082 3081 3081 3080 3080 3080 3079 3079 3079 3078 3078 3078 3078 3077 3077 3077 3077 3077 3076 3076 3076 3076 3076 3075 3075 3075 3075 3074 3074 3074 3074 3074 3074 3074 3073
3118 3117 3117 3116 3116 3115 3115 3114 3114 3113 3112 3112 3111 3111 3111 3110 3110 3109 3109 3108 3107 3107 3106 3105 3105 3104 3103 3103 3103 3102 3101 3101 3100 3099 3099 3099 3098 3097 3097 3096 3096 3095 3095 3094 3093 3092 3092 3091 3090 3090 3089 3089 3088 3087 3087 3086 3086 3085 3085 3084 3084 3083 3083 3083 3082 3082 3081 3081 3080 3079 3079 3078 3078 3077 3077 3076 3076 3076 3076 3075 3075 3075 3075 3075 3074 3074 3074 3074 3073 3073 3073 3073 3072 3072 3072 3072 3071 3071 3071 3071 3071 3071 3071
3117 3117 3116 3116 3115 3114 3114 3113 3113 3112 3111 3111 3111 3110 3110 3109 3109 3108 3107 3107 3106 3106 3105 3104 3103 3102 3102 3101 3101 3101 3100 3099 3099 3098 3098 3097 3097 3096 3095 3095 3094 3094 3093 3093 3092 3091 3091 3090 3089 3089 3088 3087 3086 3086 3085 3084 3084 3083 3082 3082 3081 3081 3081 3080 3080 3080 3079 3079 3078 3077 3077 3076 3076 3075 3074 3074 3074 3073 3073 3073 3072 3072 3072 3072 3071 3071 3071 3071 3071 3071 3070 3070 3070 3070 3069 3069 3069 3069 3069 3068 3068 3068 3068
3117 3116 3116 3115 3114 3114 3113 3112 3112 3111 3111 3110 3110 3109 3109 3108 3107 3107 3106 3106 3105 3105 3104 3103 3102 3101 3101 3100 3100 3099 3099 3098 3097 3097 3096 3096 3096 3095 3094 3093 3093 3092 3092 3091 3091 3090 3090 3089 3088 3087 3087 3086 3085 3085 3084 3083 3082 3081 3081 3080 3079 3079 3078 3077 3077 3077 3076 3076 3076 3075 3075 3074 3073 3073 3072 3071 3071 3071 3070 3070 3070 3070 3069 3069 3069 3068 3068 3068 3068 3068 3067 3067 3067 3067 3066 3066 3066 3066 3066 3066 3066 3065 3065
3116 3115 3115 3114 3114 3113 3112 3111 3111 3110 3110 3109 3108 3108 3107 3107 3106 3106 3105 3104 3104 3103 3102 3101 3101 3100 3099 3099 3098 3098 3097 3096 3096 3095 3095 3095 3094 3093 3092 3092 3091 3091 3090 3090 3089 3089 3088 3087 3087 3086 3085 3084 3084 3083 3082 3081 3081 3080 3079 3078 3078 3077 3076 3075 3075 3074 3074 3073 3073 3072 3072 3071 3071 3071 3070 3069 3069 3068 3068 3067 3067 3067 3066 3066 3066 3066 3065 3065 3065 3065 3065 3064 3064 3064 3064 3063 3063 3063 3063 3063 3063 3062 3062
3114 3114 3113 3113 3112 3112 3111 3111 3110 3109 3108 3108 3107 3106 3106 3105 3105 3104 3103 3103 3102 3102 3101 3100 3100 3099 3098 3097 3096 3096 3096 3095 3094 3094 3093 3093 3092 3092 3091 3090 3090 3089 3088 3088 3087 3086 3086 3086 3085 3084 3083 3082 3082 3081 3080 3079 3078 3078 3077 3076 3076 3075 3074 3073 3072 3072 3071 3071 3070 3070 3069 3069 3068 3068 3067 3067 3066 3066 3065 3065 3064 3064 3064 3063 3063 3063 3062 3062 3062 3062 3061 3061 3061 3061 3061 3061 3060 3060 3060 3060 3060 3060 3060
3113 3112 3112 3111 3111 3111 3110 3109 3108 3108 3107 3106 3106 3105 3104 3104 3103 3102 3102 3101 3101 3100 3100 3099 3098 3097 3096 3096 3095 3095 3094 3093 3092 3092 3091 3091 3091 3090 3090 3089 3088 3087 3086 3086 3085 3084 3084 3083 3083 3082 3081 3081 3080 3079 3078 3077 3076 3076 3075 3074 3074 3073 3072 3071 3071 3070 3069 3068 3068 3067 3066 3066 3066 3065 3065 3064 3063 3063 3062 3062 3061 3061 3061 3061 3060 3060 3060 3059 3059 3059 3059 3058 3058 3058 3057 3057 3057 3057 3057 3056 3056 3056 3056
3111 3111 3110 3110 3109 3109 3108 3108 3107 3106 3106 3105 3104 3104 3103 3102 3102 3101 3101 3100 3099 3099 3098 3097 3096 3096 3095 3094 3093 3093 3092 3092 3091 3090 3090 3089 3089 3088 3088 3087 3086 3085 3085 3084 3083 3082 3082 3081 3081 3080 3079 3079 3078 3077 3076 3075 3074 3074 3073 3072 3071 3071 3070 3069 3069 3068 3067 3066 3066 3065 3064 3064 3063 3062 3062 3061 3061 3060 3060 3059 3059 3058 3058 3058 3057 3057 3056 3056 3056 3056 3056 3055 3055 3055 3055 3054 3054 3054 3053 3053 3053 3053 3053
3109 3109 3108 3108 3108 3107 3106 3106 3105 3105 3104 3103 3103 3102 3101 3101 3101 3100 3099 3099 3098 3097 3096 3096 3094 3094 3093 3092 3092 3091 3091 3090 3089 3089 3088 3088 3087 3086 3086 3085 3084 3083 3083 3082 3081 3081 3080 3080 3079 3078 3077 3077 3076 3075 3074 3073 3073 3072 3071 3070 3069 3069 3068 3067 3066 3066 3065 3064 3064 3063 3062 3061 3061 3060 3059 3059 3058 3057 3057 3056 3056 3056 3055 3055 3054 3054 3054 3053 3053 3053 3052 3052 3052 3052 3051 3051 3051 3050 3050 3050 3050 3050 3050
3108 3107 3107 3106 3106 3106 3105 3104 3104 3103 3102 3101 3101 3101 3100 3099 3099 3098 3098 3097 3096 3096 3095 3094 3093 3091 3091 3091 3090 3089 3089 3088 3087 3086 3086 3086 3085 3084 3084 3083 3082 3081 3081 3080 3079 3079 3078 3077 3077 3076 3075 3075 3074 3073 3072 3072 3071 3070 3069 3068 3067 3066 3066 3065 3064 3064 3063 3062 3061 3061 3060 3060 3059 3058 3057 3056 3056 3055 3055 3054 3053 3053 3052 3052 3051 3051 3051 3050 3050 3050 3049 3049 3049 3048 3048 3048 3047 3047 3047 3046 3046 3046 3046
3106 3106 3105 3105 3105 3104 3103 3103 3102 3101 3100 3100 3099 3098 3098 3097 3097 3096 3096 3095 3094 3093 3093 3092 3091 3090 3089 3088 3088 3087 3086 3086 3085 3085 3084 3083 3082 3082 3081 3081 3080 3079 3079 3078 3077 3076 3076 3075 3075 3074 3073 3072 3071 3071 3070 3070 3069 3068 3067 3066 3066 3065 3064 3063 3062 3061 3061 3060 3059 3059 3058 3057 3057 3056 3055 3054 3053 3052 3052 3051 3051 3050 3050 3049 3049 3048 3048 3047 3047 3047 3046 3046 3046 3045 3045 3045 3044 3044 3043 3043 3043 3042 3042
3105 3104 3104 3103 3103 3102 3102 3101 3100 3099 3098 3098 3097 3096 3096 3095 3095 3094 3093 3092 3091 3091 3090 3090 3089 3088 3087 3086 3085 3085 3084 3083 3083 3082 3081 3080 3080 3079 3078 3078 3077 3076 3076 3075 3074 3074 3073 3073 3072 3071 3071 3070 3069 3069 3068 3068 3067 3066 3065 3064 3063 3062 3061 3061 3060 3059 3058 3057 3057 3056 3056 3055 3054 3054 3053 3052 3051 3050 3049 3049 3048 3047 3047 3046 3046 3046 3045 3045 3044 3044 3043 3043 3042 3042 3042 3041 3041 3041 3040 3040 3039 3039 3039
3102 3102 3101 3101 3101 3100 3100 3099 3098 3097 3096 3096 3095 3094 3094 3093 3092 3091 3091 3090 3089 3088 3087 3087 3086 3085 3084 3083 3083 3082 3082 3081 3080 3079 3078 3077 3076 3076 3075 3075 3074 3073 3073 3072 3071 3071 3071 3070 3069 3069 3068 3067 3066 3066 3066 3065 3065 3064 3063 3062 3061 3060 3060 3059 3058 3057 3056 3055 3055 3054 3053 3053 3052 3051 3051 3050 3049 3047 3047 3046 3045 3045 3044 3044 3043 3043 3042 3042 3041 3041 3040 3040 3039 3039 3038 3038 3037 3037 3037 3036 3036 3036 3035
3100 3100 3099 3099 3098 3098 3097 3096 3096 3095 3094 3093 3092 3092 3091 3091 3090 3089 3088 3087 3086 3085 3085 3084 3084 3083 3082 3081 3080 3080 3079 3078 3077 3076 3075 3074 3073 3073 3072 3071 3071 3071 3070 3069 3069 3068 3068 3067 3066 3066 3065 3065 3064 3064 3063 3063 3062 3061 3061 3060 3059 3058 3057 3057 3056 3055 3054 3053 3052 3051 3051 3050 3050 3049 3048 3047 3046 3045 3044 3043 3043 3042 3041 3041 3040 3040 3039 3039 3038 3038 3037 3037 3036 3036 3035 3035 3034 3034 3033 3033 3032 3032 3032
3098 3097 3097 3096 3096 3096 3095 3094 3093 3092 3091 3091 3090 3089 3089 3088 3087 3086 3086 3085 3084 3083 3082 3081 3081 3080 3079 3078 3078 3077 3076 3076 3075 3073 3072 3071 3070 3069 3069 3068 3068 3067 3066 3066 3066 3065 3065 3064 3064 3063 3062 3062 3061 3061 3060 3060 3060 3059 3058 3057 3056 3056 3055 3054 3054 3053 3052 3051 3050 3049 3049 3048 3047 3046 3046 3045 3044 3043 3042 3041 3040 3039 3039 3038 3037 3036 3036 3036 3035 3035 3034 3034 3033 3033 3032 3032 3031 3031 3030 3030 3029 3029 3028
3096 3095 3095 3094 3094 3093 3093 3092 3091 3090 3089 3088 3087 3087 3086 3086 3085 3084 3083 3082 3081 3080 3080 3079 3078 3077 3076 3076 3075 3075 3074 3073 3072 3070 3069 3067 3067 3066 3066 3065 3065 3064 3063 3062 3062 3062 3061 3061 3060 3060 3060 3059 3059 3058 3057 3057 3056 3056 3055 3055 3054 3053 3052 3052 3051 3051 3050 3049 3048 3047 3046 3046 3045 3044 3043 3042 3041 3040 3040 3039 3038 3037 3036 3035 3035 3034 3033 3033 3032 3031 3031 3031 3030 3030 3029 3029 3028 3028 3027 3026 3026 3026 3025
3094 3093 3092 3092 3091 3091 3090 3090 3089 3088 3086 3086 3085 3084 3084 3083 3082 3081 3081 3080 3078 3078 3077 3076 3075 3074 3074 3073 3073 3072 3071 3070 3069 3067 3065 3064 3063 3063 3062 3061 3061 3060 3060 3059 3059 3058 3058 3057 3057 3057 3057 3056 3056 3055 3055 3054 3053 3052 3052 3051 3051 3050 3050 3049 3049 3048 3047 3046 3046 3045 3044 3043 3043 3042 3041 3040 3039 3038 3037 3036 3036 3035 3034 3033 3032 3031 3031 3030 3029 3029 3028 3028 3027 3027 3026 3026 3026 3025 3024 3023 3023 3022 3022
3091 3091 3090 3090 3089 3088 3088 3087 3086 3085 3084 3083 3082 3081 3081 3081 3080 3079 3078 3077 3076 3075 3074 3073 3072 3071 3071 3070 3070 3069 3069 3067 3066 3064 3062 3061 3060 3060 3059 3058 3057 3056 3056 3056 3055 3055 3055 3054 3054 3054 3054 3053 3053 3052 3051 3051 3050 3049 3049 3048 3047 3047 3047 3046 3046 3046 3045 3044 3043 3043 3042 3041 3040 3039 3038 3037 3036 3036 3035 3034 3033 3032 3031 3031 3030 3029 3028 3027 3026 3026 3025 3025 3024 3024 3024 3023 3022 3022 3021 3020 3020 3019 3019
3090 3089 3088 3087 3087 3086 3086 3085 3084 3082 3081 3081 3080 3079 3079 3078 3078 3077 3076 3075 3074 3073 3071 3070 3069 3069 3067 3066 3066 3066 3066 3065 3063 3061 3059 3058 3057 3056 3055 3055 3054 3053 3052 3052 3052 3051 3051 3051 3051 3051 3051 3050 3050 3049 3048 3047 3046 3046 3045 3045 3044 3044 3044 3043 3043 3042 3041 3041 3040 3040 3039 3038 3037 3036 3036 3035 3034 3033 3032 3031 3030 3030 3029 3028 3027 3027 3026 3025 3024 3024 3023 3022 3022 3021 3021 3020 3020 3019 3018 3017 3017 3016 3016
3088 3087 3086 3086 3085 3084 3083 3082 3081 3080 3079 3078 3077 3076 3076 3076 3075 3074 3074 3073 3072 3071 3069 3067 3066 3066 3065 3063 3063 3063 3064 3062 3061 3059 3056 3055 3054 3054 3051 3050 3049 3049 3049 3049 3048 3048 3047 3047 3047 3048 3047 3047 3046 3046 3045 3044 3042 3042 3041 3041 3041 3040 3040 3040 3040 3039 3038 3038 3037 3037 3036 3035 3034 3033 3032 3032 3031 3030 3029 3028 3027 3027 3026 3025 3025 3024 3023 3023 3022 3021 3021 3020 3019 3019 3018 3017 3017 3016 3015 3015 3014 3013 3012
3086 3085 3084 3083 3082 3081 3081 3080 3079 3078 3076 3075 3075 3074 3074 3073 3073 3072 3071 3071 3070 3068 3067 3066 3064 3063 3062 3061 3060 3060 3061 3060 3058 3056 3054 3052 3051 3051 3049 3047 3045 3044 3045 3045 3044 3044 3044 3043 3044 3044 3044 3044 3043 3042 3041 3040 3039 3038 3038 3037 3037 3037 3037 3036 3036 3035 3035 3034 3034 3034 3033 3032 3031 3030 3029 3029 3028 3027 3026 3026 3025 3024 3023 3022 3021 3021 3020 3020 3020 3019 3018 3018 3017 3016 3015 3015 3014 3013 3012 3012 3011 3011 3010
3084 3083 3082 3081 3081 3080 3079 3078 3077 3076 3075 3073 3072 3071 3071 3071 3070 3070 3069 3068 3067 3066 3065 3064 3062 3061 3059 3058 3057 3056 3056 3056 3055 3054 3052 3051 3049 3048 3046 3045 3043 3041 3041 3040 3038 3039 3041 3041 3040 3040 3040 3040 3039 3038 3037 3036 3036 3035 3035 3034 3033 3033 3033 3033 3032 3031 3031 3031 3031 3031 3030 3029 3028 3027 3026 3026 3025 3024 3023 3023 3022 3021 3020 3019 3019 3018 3017 3017 3017 3016 3016 3015 3014 3013 3013 3012 3011 3011 3010 3009 3008 3008 3007
3082 3081 3080 3079 3078 3077 3076 3076 3075 3074 3073 3071 3070 3069 3069 3068 3068 3067 3066 3066 3065 3064 3062 3061 3060 3058 3057 3056 3055 3054 3053 3053 3052 3051 3049 3048 3047 3045 3043 3042 3041 3039 3038 3037 3034 3033 3035 3038 3037 3036 3036 3036 3034 3033 3033 3033 3032 3031 3031 3031 3030 3030 3029 3029 3028 3028 3027 3027 3027 3027 3026 3026 3025 3024 3023 3022 3022 3021 3021 3020 3019 3018 3017 3016 3016 3015 3015 3014 3014 3013 3013 3012 3012 3011 3010 3010 3009 3008 3007 3006 3006 3005 3004
3080 3079 3078 3077 3076 3075 3074 3073 3073 3072 3071 3070 3068 3067 3066 3066 3066 3065 3064 3063 3062 3061 3060 3058 3057 3056 3054 3053 3052 3051 3051 3050 3049 3048 3046 3045 3045 3043 3041 3039 3038 3037 3035 3034 3032 3030 3030 3032 3032 3031 3031 3032 3031 3029 3029 3029 3028 3028 3027 3027 3027 3026 3026 3025 3025 3024 3024 3024 3024 3023 3023 3022 3021 3021 3020 3019 3019 3018 3017 3017 3016 3015 3014 3013 3012 3012 3011 3011 3011 3011 3010 3010 3009 3008 3008 3007 3006 3005 3004 3003 3002 3002 3001
3078 3077 3076 3075 3074 3073 3072 3071 3071 3070 3069 3067 3066 3065 3064 3063 3063 3062 3062 3061 3060 3059 3057 3056 3054 3053 3051 3050 3049 3048 3048 3047 3047 3046 3044 3042 3041 3041 3039 3038 3036 3035 3033 3031 3029 3028 3027 3027 3026 3025 3025 3028 3027 3025 3025 3025 3025 3024 3024 3024 3023 3023 3022 3021 3021 3020 3020 3020 3020 3020 3019 3018 3018 3017 3016 3016 3015 3015 3014 3014 3013 3012 3011 3010 3009 3009 3008 3008 3008 3007 3007 3006 3006 3006 3005 3004 3003 3002 3001 3001 3000 2999 2998
3076 3075 3074 3073 3072 3071 3070 3069 3068 3067 3066 3065 3064 3063 3061 3061 3060 3060 3059 3058 3057 3056 3055 3053 3051 3050 3049 3048 3046 3045 3045 3044 3044 3043 3042 3040 3038 3037 3036 3036 3035 3033 3031 3029 3027 3026 3025 3025 3023 3020 3018 3022 3023 3021 3021 3020 3021 3020 3020 3020 3020 3019 3019 3018 3017 3016 3016 3016 3016 3016 3015 3015 3014 3013 3013 3012 3012 3011 3011 3010 3010 3009 3008 3007 3006 3005 3005 3004 3004 3004 3003 3003 3003 3002 3002 3001 3001 3000 2999 2997 2996 2996 2995
3074 3073 3072 3071 3070 3069 3068 3067 3066 3065 3064 3063 3062 3060 3059 3058 3058 3057 3056 3056 3055 3054 3052 3051 3049 3048 3047 3046 3044 3042 3041 3041 3041 3041 3040 3038 3036 3035 3033 3032 3031 3031 3029 3028 3026 3025 3023 3022 3021 3018 3015 3015 3017 3018 3018 3016 3016 3016 3016 3016 3016 3016 3015 3014 3013 3013 3012 3012 3012 3011 3011 3011 3011 3010 3009 3009 3008 3008 3007 3007 3006 3005 3004 3003 3002 3002 3001 3001 3001 3000 3000 3000 2999 2999 2999 2998 2998 2997 2996 2995 2994 2992 2991
3071 3071 3070 3069 3068 3067 3066 3065 3064 3063 3062 3061 3059 3058 3057 3056 3055 3055 3054 3053 3052 3051 3050 3048 3047 3046 3045 3043 3042 3040 3038 3038 3038 3038 3037 3035 3033 3032 3031 3029 3028 3027 3026 3025 3024 3023 3022 3020 3018 3016 3015 3012 3010 3012 3015 3014 3013 3012 3013 3013 3013 3012 3011 3010 3010 3009 3009 3009 3008 3008 3007 3007 3006 3006 3006 3005 3005 3004 3004 3003 3002 3002 3001 3000 2999 2998 2998 2997 2997 2996 2996 2996 2996 2996 2996 2995 2994 2993 2993 2992 2991 2990 2989
3069 3068 3067 3066 3066 3065 3064 3063 3062 3061 3060 3058 3057 3056 3055 3053 3053 3052 3051 3050 3049 3049 3047 3046 3045 3043 3042 3041 3040 3038 3036 3036 3036 3036 3035 3032 3031 3030 3029 3027 3025 3024 3023 3022 3021 3021 3020 3018 3016 3015 3013 3010 3007 3006 3007 3010 3011 3010 3009 3009 3009 3008 3007 3006 3006 3006 3005 3005 3005 3004 3003 3003 3003 3002 3002 3001 3001 3001 3000 3000 2999 2998 2997 2996 2996 2995 2995 2994 2994 2993 2993 2992 2992 2992 2992 2991 2991 2990 2989 2988 2987 2986 2986
3067 3066 3066 3065 3064 3063 3062 3061 3060 3059 3057 3056 3055 3054 3052 3051 3050 3049 3049 3047 3046 3046 3045 3044 3042 3041 3040 3039 3037 3036 3035 3034 3033 3032 3032 3030 3028 3027 3026 3024 3023 3021 3021 3020 3019 3018 3016 3015 3014 3013 3011 3009 3006 3003 3001 3003 3006 3006 3006 3006 3005 3004 3003 3002 3002 3002 3001 3001 3001 3000 3000 2999 2999 2999 2998 2998 2997 2997 2996 2996 2995 2995 2994 2993 2992 2992 2991 2991 2990 2990 2989 2989 2989 2989 2988 2988 2987 2986 2986 2985 2984 2983 2982